RYR3232 LIMC-LPPR

Flight info

Callsign RYR3232
Flight time 2h 13m
Altitude 30000
Route TOP DCT IXUSA DCT RONOP DCT GIGUS/N0452F320 DCT BALSI DCT GIPNO DCT RUSIT/N0449F330 DCT ESIDA DCT LERGA DCT MINSO DCT NARAK DCT AGN DCT LATEK DCT PPN DCT MIRPO DCT DGO DCT NEA DCT ZMR/N0455F350 L155 ADORO DCT CANAR DCT INKIT
Aircraft B738/M-SDE2E3FGHIRWXY/LB1

Departure

Time 2026-05-07 06:23
Airport Milan Malpensa International Airport (LIMC)

Arrival

Time 2026-05-07 08:36
Airport Francisco de Sá Carneiro Airport (LPPR)
Time Latitude Longitude Altitude Speed Heading
2026-05-07 06:04 45.62536 8.71971 739 ft 0 kts 79°
2026-05-07 06:18 45.62538 8.71986 739 ft 4 kts 79°
2026-05-07 06:18 45.62527 8.72054 740 ft 11 kts 154°
2026-05-07 06:19 45.62431 8.72095 740 ft 17 kts 173°
2026-05-07 06:19 45.62289 8.72130 740 ft 24 kts 168°
2026-05-07 06:19 45.62209 8.72200 740 ft 12 kts 92°
2026-05-07 06:19 45.62225 8.72345 739 ft 18 kts 83°
2026-05-07 06:20 45.62253 8.72537 739 ft 23 kts 80°
2026-05-07 06:20 45.62286 8.72787 740 ft 28 kts 78°
2026-05-07 06:20 45.62298 8.73001 740 ft 14 kts 126°
2026-05-07 06:20 45.62193 8.73049 740 ft 19 kts 170°
2026-05-07 06:21 45.62039 8.73095 740 ft 26 kts 168°
2026-05-07 06:21 45.61845 8.73145 740 ft 31 kts 169°
2026-05-07 06:21 45.61795 8.73159 739 ft 7 kts 166°
2026-05-07 06:21 45.61738 8.73214 740 ft 13 kts 137°
2026-05-07 06:22 45.61673 8.73347 740 ft 20 kts 122°
2026-05-07 06:22 45.61591 8.73679 739 ft 16 kts 83°
2026-05-07 06:22 45.61628 8.73734 738 ft 0 kts 350°
2026-05-07 06:23 45.61676 8.73719 738 ft 34 kts 348°
2026-05-07 06:23 45.62189 8.73576 739 ft 114 kts 349°
2026-05-07 06:23 45.63189 8.73305 836 ft 169 kts 348°
2026-05-07 06:23 45.64329 8.72956 1846 ft 162 kts 348°
2026-05-07 06:24 45.65421 8.72673 2848 ft 159 kts 351°
2026-05-07 06:24 45.66574 8.72528 3462 ft 182 kts
2026-05-07 06:24 45.67965 8.72573 3770 ft 215 kts
2026-05-07 06:24 45.69524 8.72586 4326 ft 229 kts
2026-05-07 06:25 45.71125 8.72578 5093 ft 232 kts 357°
2026-05-07 06:25 45.72642 8.71877 5860 ft 239 kts 322°
2026-05-07 06:25 45.73628 8.70002 6823 ft 239 kts 290°
2026-05-07 06:25 45.73790 8.67660 7749 ft 241 kts 260°
2026-05-07 06:26 45.73255 8.65382 8659 ft 243 kts 246°
2026-05-07 06:26 45.72553 8.63143 9497 ft 249 kts 254°
2026-05-07 06:26 45.72388 8.60691 10380 ft 248 kts 272°
2026-05-07 06:26 45.72430 8.58206 11223 ft 251 kts 271°
2026-05-07 06:27 45.72468 8.55638 11762 ft 269 kts 271°
2026-05-07 06:27 45.72500 8.52817 11982 ft 298 kts 271°
2026-05-07 06:27 45.72525 8.49720 12201 ft 324 kts 270°
2026-05-07 06:27 45.72544 8.46374 12405 ft 349 kts 270°
2026-05-07 06:28 45.72555 8.42829 12947 ft 360 kts 270°
2026-05-07 06:28 45.72561 8.39218 13776 ft 364 kts 270°
2026-05-07 06:28 45.72561 8.35594 14561 ft 366 kts 270°
2026-05-07 06:28 45.72558 8.31940 15323 ft 369 kts 270°
2026-05-07 06:29 45.72553 8.28235 16041 ft 373 kts 270°
2026-05-07 06:29 45.72545 8.24556 16746 ft 377 kts 270°
2026-05-07 06:29 45.72535 8.20784 17461 ft 381 kts 270°
2026-05-07 06:29 45.72524 8.16967 18164 ft 384 kts 269°
2026-05-07 06:30 45.72512 8.13125 18802 ft 387 kts 270°
2026-05-07 06:30 45.72498 8.09262 19413 ft 390 kts 270°
2026-05-07 06:30 45.72482 8.05371 20011 ft 393 kts 270°
2026-05-07 06:30 45.72465 8.01443 20608 ft 396 kts 270°
2026-05-07 06:31 45.72447 7.97479 21172 ft 400 kts 270°
2026-05-07 06:31 45.72427 7.93482 21743 ft 403 kts 270°
2026-05-07 06:31 45.72405 7.89450 22319 ft 406 kts 270°
2026-05-07 06:31 45.72382 7.85399 22883 ft 409 kts 270°
2026-05-07 06:32 45.72357 7.81303 23396 ft 413 kts 270°
2026-05-07 06:32 45.72331 7.77236 23841 ft 416 kts 270°
2026-05-07 06:32 45.72303 7.73075 24285 ft 419 kts 270°
2026-05-07 06:32 45.72274 7.68903 24739 ft 421 kts 270°
2026-05-07 06:33 45.72242 7.64693 25127 ft 424 kts 270°
2026-05-07 06:33 45.72209 7.60457 25530 ft 427 kts 270°
2026-05-07 06:33 45.72174 7.56178 25958 ft 430 kts 270°
2026-05-07 06:33 45.72137 7.51895 26438 ft 430 kts 270°
2026-05-07 06:34 45.72098 7.47611 26952 ft 431 kts 270°
2026-05-07 06:34 45.72057 7.43314 27308 ft 434 kts 269°
2026-05-07 06:34 45.72015 7.38970 27630 ft 437 kts 269°
2026-05-07 06:34 45.71970 7.34610 27983 ft 440 kts 269°
2026-05-07 06:35 45.71924 7.30222 28362 ft 442 kts 269°
2026-05-07 06:35 45.71876 7.25811 28742 ft 443 kts 269°
2026-05-07 06:35 45.71827 7.21462 29221 ft 442 kts 269°
2026-05-07 06:35 45.71776 7.17077 29760 ft 439 kts 269°
2026-05-07 06:36 45.71723 7.12712 30229 ft 438 kts 269°
2026-05-07 06:36 45.71669 7.08350 30598 ft 438 kts 269°
2026-05-07 06:36 45.71613 7.03991 30981 ft 437 kts 269°
2026-05-07 06:36 45.71556 6.99634 31348 ft 436 kts 269°
2026-05-07 06:37 45.71498 6.95364 31774 ft 435 kts 269°
2026-05-07 06:37 45.71438 6.91051 32231 ft 432 kts 269°
2026-05-07 06:37 45.71377 6.86768 32658 ft 430 kts 269°
2026-05-07 06:37 45.71314 6.82494 33031 ft 429 kts 269°
2026-05-07 06:38 45.71250 6.78224 33439 ft 428 kts 268°
2026-05-07 06:38 45.71184 6.73971 33867 ft 426 kts 268°
2026-05-07 06:38 45.71117 6.69739 34235 ft 424 kts 268°
2026-05-07 06:38 45.71049 6.65512 34520 ft 424 kts 268°
2026-05-07 06:39 45.70979 6.61291 34774 ft 425 kts 268°
2026-05-07 06:39 45.70907 6.57055 35032 ft 425 kts 268°
2026-05-07 06:39 45.70835 6.52887 35298 ft 425 kts 268°
2026-05-07 06:39 45.70761 6.48661 35545 ft 425 kts 268°
2026-05-07 06:40 45.70685 6.44430 35804 ft 425 kts 268°
2026-05-07 06:40 45.70607 6.40191 36016 ft 426 kts 268°
2026-05-07 06:40 45.70445 6.31662 36019 ft 428 kts 268°
2026-05-07 06:41 45.70279 6.23189 36014 ft 424 kts 268°
2026-05-07 06:41 45.70107 6.14791 36020 ft 421 kts 268°
2026-05-07 06:42 45.69930 6.06412 36016 ft 420 kts 268°
2026-05-07 06:42 45.69748 5.98105 36020 ft 420 kts 268°
2026-05-07 06:43 45.69559 5.89746 36025 ft 421 kts 268°
2026-05-07 06:43 45.69363 5.81340 36023 ft 422 kts 268°
2026-05-07 06:44 45.69161 5.72962 36021 ft 424 kts 268°
2026-05-07 06:44 45.68952 5.64500 36020 ft 426 kts 268°
2026-05-07 06:45 45.68735 5.56013 36023 ft 427 kts 268°
2026-05-07 06:45 45.68511 5.47508 36016 ft 428 kts 268°
2026-05-07 06:46 45.68281 5.38980 36023 ft 429 kts 268°
2026-05-07 06:46 45.68046 5.30511 36017 ft 429 kts 267°
2026-05-07 06:47 45.67803 5.22000 36021 ft 428 kts 267°
2026-05-07 06:47 45.67555 5.13499 36019 ft 428 kts 267°
2026-05-07 06:48 45.67300 5.05002 36017 ft 427 kts 267°
2026-05-07 06:48 45.67041 4.96524 36020 ft 426 kts 267°
2026-05-07 06:49 45.66195 4.88163 36018 ft 426 kts 254°
2026-05-07 06:49 45.63832 4.80398 36025 ft 427 kts 244°
2026-05-07 06:50 45.61122 4.72932 36018 ft 426 kts 244°
2026-05-07 06:50 45.58414 4.65405 36033 ft 425 kts 244°
2026-05-07 06:51 45.55731 4.57888 36038 ft 424 kts 244°
2026-05-07 06:51 45.53048 4.50374 36043 ft 424 kts 244°
2026-05-07 06:52 45.50364 4.42880 36054 ft 424 kts 244°
2026-05-07 06:52 45.47674 4.35396 36046 ft 424 kts 244°
2026-05-07 06:53 45.44980 4.27928 36049 ft 423 kts 244°
2026-05-07 06:53 45.42739 4.21727 36043 ft 424 kts 244°
2026-05-07 06:54 45.39601 4.13063 36041 ft 424 kts 244°
2026-05-07 06:54 45.37347 4.06857 36037 ft 424 kts 244°
2026-05-07 06:55 45.34632 3.99400 36032 ft 424 kts 244°
2026-05-07 06:55 45.31914 3.91953 36031 ft 424 kts 244°
2026-05-07 06:56 45.29194 3.84519 36014 ft 423 kts 244°
2026-05-07 06:56 45.26472 3.77103 36024 ft 423 kts 244°
2026-05-07 06:57 45.23401 3.70025 36033 ft 424 kts 237°
2026-05-07 06:57 45.19971 3.63203 36020 ft 425 kts 236°
2026-05-07 06:58 45.16541 3.56386 36022 ft 425 kts 237°
2026-05-07 06:58 45.13130 3.49535 36008 ft 425 kts 237°
2026-05-07 06:59 45.09733 3.42690 36016 ft 424 kts 237°
2026-05-07 06:59 45.06344 3.35870 36024 ft 423 kts 237°
2026-05-07 07:00 45.02950 3.29057 36021 ft 423 kts 237°
2026-05-07 07:00 44.99579 3.22309 36024 ft 423 kts 237°
2026-05-07 07:01 44.96183 3.15527 36019 ft 422 kts 237°
2026-05-07 07:01 44.92785 3.08755 36015 ft 422 kts 237°
2026-05-07 07:02 44.89389 3.02003 36011 ft 422 kts 237°
2026-05-07 07:02 44.85993 2.95266 36016 ft 421 kts 236°
2026-05-07 07:03 44.82665 2.88473 36014 ft 421 kts 238°
2026-05-07 07:03 44.79520 2.81579 36017 ft 420 kts 239°
2026-05-07 07:04 44.76363 2.74640 36017 ft 421 kts 239°
2026-05-07 07:04 44.73183 2.67728 36017 ft 421 kts 239°
2026-05-07 07:05 44.69985 2.60823 36017 ft 421 kts 238°
2026-05-07 07:05 44.66780 2.53929 36014 ft 421 kts 238°
2026-05-07 07:06 44.63569 2.47039 36024 ft 421 kts 238°
2026-05-07 07:06 44.60368 2.40186 36019 ft 422 kts 238°
2026-05-07 07:07 44.57140 2.33289 36012 ft 422 kts 238°
2026-05-07 07:07 44.53914 2.26415 36020 ft 422 kts 238°
2026-05-07 07:08 44.50685 2.19550 36016 ft 422 kts 238°
2026-05-07 07:08 44.47477 2.12746 36017 ft 421 kts 238°
2026-05-07 07:09 44.44243 2.05903 36014 ft 421 kts 238°
2026-05-07 07:09 44.41010 1.99079 36016 ft 420 kts 238°
2026-05-07 07:10 44.37778 1.92271 36012 ft 419 kts 238°
2026-05-07 07:10 44.34551 1.85488 36015 ft 418 kts 238°
2026-05-07 07:11 44.31322 1.78715 36012 ft 417 kts 237°
2026-05-07 07:11 44.28121 1.71969 36017 ft 416 kts 238°
2026-05-07 07:12 44.25000 1.65162 36017 ft 416 kts 239°
2026-05-07 07:12 44.21910 1.58399 36015 ft 415 kts 238°
2026-05-07 07:13 44.18801 1.51634 36022 ft 414 kts 238°
2026-05-07 07:13 44.15683 1.44880 36014 ft 414 kts 238°
2026-05-07 07:14 44.12566 1.38146 36020 ft 413 kts 238°
2026-05-07 07:14 44.09468 1.31470 36019 ft 413 kts 238°
2026-05-07 07:15 44.06346 1.24755 36018 ft 413 kts 238°
2026-05-07 07:15 44.03220 1.18049 36022 ft 413 kts 238°
2026-05-07 07:16 44.00096 1.11361 36021 ft 413 kts 238°
2026-05-07 07:16 43.96963 1.04670 36029 ft 413 kts 238°
2026-05-07 07:17 43.93845 0.98024 36021 ft 413 kts 238°
2026-05-07 07:17 43.90704 0.91342 36030 ft 414 kts 238°
2026-05-07 07:18 43.87351 0.84852 36038 ft 415 kts 230°
2026-05-07 07:18 43.83475 0.78899 36018 ft 416 kts 229°
2026-05-07 07:19 43.79577 0.72984 36026 ft 416 kts 229°
2026-05-07 07:19 43.75698 0.67050 36024 ft 416 kts 229°
2026-05-07 07:20 43.71822 0.61097 36027 ft 416 kts 230°
2026-05-07 07:20 43.67976 0.55191 36022 ft 416 kts 229°
2026-05-07 07:21 43.64108 0.49260 36025 ft 416 kts 229°
2026-05-07 07:21 43.60234 0.43334 36021 ft 415 kts 229°
2026-05-07 07:22 43.56355 0.37413 36025 ft 415 kts 229°
2026-05-07 07:22 43.52473 0.31500 36017 ft 415 kts 229°
2026-05-07 07:23 43.48592 0.25601 36018 ft 415 kts 229°
2026-05-07 07:23 43.44704 0.19704 36013 ft 416 kts 229°
2026-05-07 07:24 43.40844 0.13861 36010 ft 415 kts 229°
2026-05-07 07:24 43.36949 0.07977 36013 ft 415 kts 229°
2026-05-07 07:25 43.31107 -0.00825 36031 ft 415 kts 229°
2026-05-07 07:26 43.27204 -0.06691 36016 ft 416 kts 229°
2026-05-07 07:26 43.23293 -0.12558 36017 ft 416 kts 228°
2026-05-07 07:27 43.19408 -0.18373 36011 ft 416 kts 228°
2026-05-07 07:27 43.15484 -0.24234 36013 ft 417 kts 228°
2026-05-07 07:28 43.11555 -0.30091 36012 ft 417 kts 228°
2026-05-07 07:28 43.07644 -0.35910 36001 ft 417 kts 228°
2026-05-07 07:29 43.03712 -0.41748 36008 ft 417 kts 228°
2026-05-07 07:29 42.99773 -0.47585 35993 ft 416 kts 228°
2026-05-07 07:30 42.95863 -0.53369 35997 ft 417 kts 228°
2026-05-07 07:30 42.91923 -0.59185 35998 ft 417 kts 228°
2026-05-07 07:31 42.88443 -0.65461 35991 ft 416 kts 242°
2026-05-07 07:31 42.86472 -0.72855 35980 ft 418 kts 257°
2026-05-07 07:32 42.85461 -0.80670 35998 ft 419 kts 258°
2026-05-07 07:32 42.84479 -0.88499 35996 ft 419 kts 258°
2026-05-07 07:33 42.83471 -0.96261 36000 ft 419 kts 258°
2026-05-07 07:33 42.82432 -1.04090 35999 ft 420 kts 258°
2026-05-07 07:34 42.81384 -1.11912 36005 ft 420 kts 258°
2026-05-07 07:34 42.80328 -1.19747 36001 ft 421 kts 258°
2026-05-07 07:35 42.79267 -1.27587 36014 ft 422 kts 258°
2026-05-07 07:35 42.78203 -1.35405 36027 ft 422 kts 257°
2026-05-07 07:36 42.77127 -1.43265 36012 ft 422 kts 257°
2026-05-07 07:36 42.76047 -1.51119 35984 ft 422 kts 257°
2026-05-07 07:37 42.74961 -1.58973 35999 ft 422 kts 257°
2026-05-07 07:37 42.73871 -1.66827 35984 ft 423 kts 257°
2026-05-07 07:38 42.72537 -1.74535 35997 ft 421 kts 252°
2026-05-07 07:38 42.70766 -1.82139 35996 ft 421 kts 251°
2026-05-07 07:39 42.68989 -1.89741 36001 ft 422 kts 251°
2026-05-07 07:39 42.67244 -1.97362 36002 ft 423 kts 251°
2026-05-07 07:40 42.65504 -2.04995 35999 ft 423 kts 251°
2026-05-07 07:40 42.63759 -2.12626 36003 ft 423 kts 251°
2026-05-07 07:41 42.61978 -2.20241 35990 ft 423 kts 250°
2026-05-07 07:41 42.60143 -2.27769 36001 ft 422 kts 250°
2026-05-07 07:42 42.58290 -2.35342 35986 ft 423 kts 250°
2026-05-07 07:42 42.56437 -2.42924 35990 ft 423 kts 250°
2026-05-07 07:43 42.54582 -2.50508 35986 ft 423 kts 250°
2026-05-07 07:43 42.52722 -2.58087 35982 ft 423 kts 250°
2026-05-07 07:44 42.50870 -2.65613 35979 ft 423 kts 250°
2026-05-07 07:44 42.49001 -2.73181 35980 ft 424 kts 250°
2026-05-07 07:45 42.47128 -2.80742 35971 ft 424 kts 250°
2026-05-07 07:45 42.45564 -2.87036 35978 ft 423 kts 249°
2026-05-07 07:46 42.43303 -2.94379 35979 ft 422 kts 244°
2026-05-07 07:46 42.40791 -3.01578 35964 ft 422 kts 243°
2026-05-07 07:47 42.38289 -3.08768 35955 ft 423 kts 243°
2026-05-07 07:47 42.35805 -3.15990 35949 ft 423 kts 244°
2026-05-07 07:48 42.33328 -3.23222 35955 ft 424 kts 244°
2026-05-07 07:48 42.30861 -3.30412 35955 ft 425 kts 243°
2026-05-07 07:49 42.28366 -3.37664 35958 ft 426 kts 243°
2026-05-07 07:49 42.25865 -3.44912 35975 ft 426 kts 243°
2026-05-07 07:50 42.23353 -3.52175 35968 ft 427 kts 243°
2026-05-07 07:50 42.20835 -3.59433 35957 ft 427 kts 243°
2026-05-07 07:51 42.18312 -3.66690 35933 ft 427 kts 243°
2026-05-07 07:51 42.15804 -3.73884 35936 ft 427 kts 243°
2026-05-07 07:52 42.13274 -3.81122 35931 ft 427 kts 243°
2026-05-07 07:52 42.10741 -3.88350 35938 ft 427 kts 243°
2026-05-07 07:53 42.08199 -3.95588 35930 ft 427 kts 243°
2026-05-07 07:53 42.05648 -4.02831 35931 ft 427 kts 243°
2026-05-07 07:54 42.03114 -4.10008 35937 ft 427 kts 243°
2026-05-07 07:54 42.00684 -4.17293 35928 ft 427 kts 245°
2026-05-07 07:55 41.98450 -4.24453 35925 ft 427 kts 245°
2026-05-07 07:55 41.96143 -4.31815 35929 ft 427 kts 245°
2026-05-07 07:56 41.93830 -4.39103 35924 ft 427 kts 245°
2026-05-07 07:56 41.91486 -4.46436 35922 ft 427 kts 245°
2026-05-07 07:57 41.89136 -4.53761 35911 ft 427 kts 245°
2026-05-07 07:57 41.86780 -4.61081 35928 ft 427 kts 245°
2026-05-07 07:58 41.84435 -4.68351 35917 ft 428 kts 245°
2026-05-07 07:58 41.82069 -4.75670 35934 ft 428 kts 245°
2026-05-07 07:59 41.79698 -4.82981 35937 ft 428 kts 245°
2026-05-07 07:59 41.77319 -4.90296 35941 ft 428 kts 245°
2026-05-07 08:00 41.74937 -4.97603 35944 ft 428 kts 245°
2026-05-07 08:00 41.72563 -5.04865 35934 ft 429 kts 245°
2026-05-07 08:01 41.70169 -5.12169 35930 ft 429 kts 245°
2026-05-07 08:01 41.67767 -5.19479 35922 ft 429 kts 244°
2026-05-07 08:02 41.65358 -5.26790 35906 ft 430 kts 244°
2026-05-07 08:02 41.62961 -5.34046 35923 ft 430 kts 245°
2026-05-07 08:03 41.60540 -5.41353 35916 ft 430 kts 245°
2026-05-07 08:03 41.58110 -5.48670 35917 ft 431 kts 245°
2026-05-07 08:04 41.55675 -5.55989 35919 ft 431 kts 245°
2026-05-07 08:04 41.53377 -5.63329 35907 ft 433 kts 251°
2026-05-07 08:05 41.52386 -5.71267 35940 ft 436 kts 263°
2026-05-07 08:05 41.51865 -5.79336 35932 ft 437 kts 263°
2026-05-07 08:06 41.51315 -5.87406 35928 ft 437 kts 263°
2026-05-07 08:06 41.50737 -5.95419 35929 ft 437 kts 263°
2026-05-07 08:07 41.50139 -6.03518 35531 ft 443 kts 263°
2026-05-07 08:07 41.49836 -6.07592 35004 ft 440 kts 262°
2026-05-07 08:07 41.49533 -6.11642 34543 ft 435 kts 263°
2026-05-07 08:07 41.49234 -6.15632 34127 ft 430 kts 263°
2026-05-07 08:08 41.48938 -6.19589 33642 ft 426 kts 263°
2026-05-07 08:08 41.48647 -6.23440 33176 ft 421 kts 263°
2026-05-07 08:08 41.48354 -6.27299 32730 ft 416 kts 263°
2026-05-07 08:08 41.48063 -6.31112 32296 ft 411 kts 263°
2026-05-07 08:09 41.47773 -6.34887 31867 ft 407 kts 263°
2026-05-07 08:09 41.47485 -6.38615 31456 ft 402 kts 263°
2026-05-07 08:09 41.47199 -6.42301 31054 ft 398 kts 263°
2026-05-07 08:09 41.46915 -6.45958 30661 ft 394 kts 263°
2026-05-07 08:10 41.46632 -6.49572 30279 ft 391 kts 263°
2026-05-07 08:10 41.46351 -6.53160 29868 ft 387 kts 263°
2026-05-07 08:10 41.46070 -6.56728 29392 ft 384 kts 263°
2026-05-07 08:10 41.45797 -6.60198 28973 ft 380 kts 263°
2026-05-07 08:11 41.45521 -6.63673 28588 ft 374 kts 263°
2026-05-07 08:11 41.45249 -6.67105 28180 ft 370 kts 263°
2026-05-07 08:11 41.44977 -6.70500 27788 ft 367 kts 263°
2026-05-07 08:11 41.44707 -6.73873 27394 ft 364 kts 263°
2026-05-07 08:12 41.44438 -6.77212 27011 ft 363 kts 263°
2026-05-07 08:12 41.44165 -6.80591 26639 ft 372 kts 263°
2026-05-07 08:12 41.43886 -6.84024 26248 ft 380 kts 263°
2026-05-07 08:12 41.43602 -6.87506 25834 ft 377 kts 263°
2026-05-07 08:13 41.43320 -6.90959 25424 ft 372 kts 263°
2026-05-07 08:13 41.43041 -6.94371 25030 ft 369 kts 263°
2026-05-07 08:13 41.42764 -6.97749 24632 ft 365 kts 263°
2026-05-07 08:13 41.42488 -7.01099 24254 ft 362 kts 263°
2026-05-07 08:14 41.42214 -7.04417 23864 ft 359 kts 263°
2026-05-07 08:14 41.41939 -7.07713 23469 ft 357 kts 263°
2026-05-07 08:14 41.41666 -7.10988 23023 ft 355 kts 263°
2026-05-07 08:14 41.41397 -7.14194 22606 ft 351 kts 263°
2026-05-07 08:15 41.41127 -7.17409 22231 ft 347 kts 262°
2026-05-07 08:15 41.40859 -7.20591 21853 ft 344 kts 262°
2026-05-07 08:15 41.40593 -7.23740 21472 ft 340 kts 263°
2026-05-07 08:15 41.40329 -7.26858 21120 ft 337 kts 262°
2026-05-07 08:16 41.40067 -7.29940 20757 ft 334 kts 263°
2026-05-07 08:16 41.39805 -7.33006 20396 ft 331 kts 262°
2026-05-07 08:16 41.39545 -7.36041 20052 ft 329 kts 262°
2026-05-07 08:16 41.39290 -7.39018 19704 ft 328 kts 262°
2026-05-07 08:17 41.39029 -7.42037 19349 ft 328 kts 262°
2026-05-07 08:17 41.38720 -7.45061 19006 ft 331 kts 256°
2026-05-07 08:17 41.38003 -7.48000 18663 ft 338 kts 245°
2026-05-07 08:17 41.36876 -7.50741 18294 ft 337 kts 237°
2026-05-07 08:18 41.35610 -7.53345 17891 ft 334 kts 236°
2026-05-07 08:18 41.34330 -7.55910 17484 ft 331 kts 236°
2026-05-07 08:18 41.33064 -7.58448 17126 ft 327 kts 236°
2026-05-07 08:18 41.31820 -7.60957 16779 ft 323 kts 236°
2026-05-07 08:19 41.30597 -7.63438 16427 ft 319 kts 236°
2026-05-07 08:19 41.29406 -7.65860 16092 ft 316 kts 236°
2026-05-07 08:19 41.28211 -7.68297 15742 ft 313 kts 236°
2026-05-07 08:19 41.27029 -7.70709 15421 ft 310 kts 236°
2026-05-07 08:20 41.25858 -7.73098 15088 ft 308 kts 236°
2026-05-07 08:20 41.24694 -7.75472 14760 ft 305 kts 236°
2026-05-07 08:20 41.23540 -7.77826 14442 ft 303 kts 236°
2026-05-07 08:20 41.22392 -7.80166 14114 ft 301 kts 236°
2026-05-07 08:21 41.21266 -7.82459 13788 ft 299 kts 236°
2026-05-07 08:21 41.20131 -7.84766 13446 ft 297 kts 236°
2026-05-07 08:21 41.19004 -7.87056 13094 ft 297 kts 236°
2026-05-07 08:21 41.17879 -7.89360 12770 ft 299 kts 238°
2026-05-07 08:22 41.16976 -7.91638 12446 ft 302 kts 243°
2026-05-07 08:22 41.16434 -7.93206 12252 ft 304 kts 245°
2026-05-07 08:22 41.15576 -7.95787 11911 ft 307 kts 245°
2026-05-07 08:23 41.14726 -7.98341 11574 ft 305 kts 245°
2026-05-07 08:23 41.13869 -8.00895 11242 ft 302 kts 245°
2026-05-07 08:23 41.13012 -8.03420 10913 ft 298 kts 244°
2026-05-07 08:23 41.12157 -8.05912 10598 ft 296 kts 244°
2026-05-07 08:24 41.11307 -8.08376 10328 ft 291 kts 244°
2026-05-07 08:24 41.10476 -8.10774 10209 ft 282 kts 244°
2026-05-07 08:24 41.09669 -8.13100 10092 ft 274 kts 244°
2026-05-07 08:24 41.08883 -8.15358 9974 ft 266 kts 243°
2026-05-07 08:25 41.08115 -8.17561 9746 ft 262 kts 243°
2026-05-07 08:25 41.07363 -8.19715 9488 ft 259 kts 243°
2026-05-07 08:25 41.06609 -8.21874 9212 ft 257 kts 243°
2026-05-07 08:25 41.05861 -8.24016 8951 ft 255 kts 243°
2026-05-07 08:26 41.04373 -8.28267 8441 ft 253 kts 243°
2026-05-07 08:26 41.03632 -8.30380 8164 ft 253 kts 243°
2026-05-07 08:26 41.02899 -8.32491 7884 ft 252 kts 245°
2026-05-07 08:27 41.02439 -8.34725 7630 ft 253 kts 258°
2026-05-07 08:27 41.02112 -8.37013 7354 ft 253 kts 257°
2026-05-07 08:27 41.01772 -8.39253 7070 ft 249 kts 256°
2026-05-07 08:27 41.01429 -8.41464 6797 ft 241 kts 256°
2026-05-07 08:28 41.01087 -8.43592 6567 ft 231 kts 255°
2026-05-07 08:28 41.00759 -8.45614 6316 ft 219 kts 255°
2026-05-07 08:28 41.00447 -8.47537 6078 ft 210 kts 255°
2026-05-07 08:28 41.00158 -8.49382 5839 ft 199 kts 256°
2026-05-07 08:29 40.99901 -8.51127 5640 ft 188 kts 256°
2026-05-07 08:29 40.99654 -8.52803 5462 ft 183 kts 256°
2026-05-07 08:29 40.99412 -8.54428 5275 ft 177 kts 256°
2026-05-07 08:29 40.99177 -8.56005 5087 ft 173 kts 256°
2026-05-07 08:30 40.98946 -8.57547 4931 ft 174 kts 257°
2026-05-07 08:30 40.98713 -8.59121 4748 ft 175 kts 259°
2026-05-07 08:30 40.98886 -8.60702 4528 ft 178 kts 304°
2026-05-07 08:30 40.99859 -8.61573 4489 ft 175 kts 348°
2026-05-07 08:31 41.01078 -8.61879 4315 ft 182 kts 349°
2026-05-07 08:31 41.02308 -8.62212 4086 ft 178 kts 349°
2026-05-07 08:31 41.03505 -8.62535 3897 ft 173 kts 349°
2026-05-07 08:31 41.04665 -8.62847 3712 ft 166 kts 349°
2026-05-07 08:32 41.05760 -8.63140 3559 ft 159 kts 349°
2026-05-07 08:32 41.06840 -8.63426 3394 ft 163 kts 349°
2026-05-07 08:32 41.07957 -8.63719 3228 ft 163 kts 349°
2026-05-07 08:32 41.09067 -8.64007 3031 ft 162 kts 349°
2026-05-07 08:33 41.10166 -8.64293 2876 ft 159 kts 349°
2026-05-07 08:33 41.11273 -8.64582 2638 ft 163 kts 349°
2026-05-07 08:33 41.12376 -8.64870 2422 ft 161 kts 349°
2026-05-07 08:33 41.13466 -8.65155 2198 ft 159 kts 348°
2026-05-07 08:34 41.14550 -8.65439 1974 ft 158 kts 348°
2026-05-07 08:34 41.15633 -8.65724 1787 ft 160 kts 348°
2026-05-07 08:34 41.16705 -8.66004 1570 ft 158 kts 348°
2026-05-07 08:34 41.17779 -8.66284 1359 ft 156 kts 348°
2026-05-07 08:35 41.18842 -8.66563 1151 ft 156 kts 348°
2026-05-07 08:35 41.19909 -8.66844 959 ft 156 kts 347°
2026-05-07 08:35 41.20976 -8.67138 776 ft 158 kts 350°
2026-05-07 08:35 41.22054 -8.67421 564 ft 159 kts 349°
2026-05-07 08:36 41.23161 -8.67702 321 ft 161 kts 350°
2026-05-07 08:36 41.24223 -8.67969 213 ft 145 kts 348°
2026-05-07 08:36 41.25020 -8.68177 185 ft 60 kts 357°
2026-05-07 08:36 41.25286 -8.68085 178 ft 13 kts 51°
2026-05-07 08:37 41.25258 -8.68013 181 ft 7 kts 165°
2026-05-07 08:37 41.25252 -8.68011 182 ft 0 kts 167°
2026-05-07 08:38 41.25248 -8.68010 182 ft 2 kts 168°
2026-05-07 08:38 41.25216 -8.68001 184 ft 8 kts 168°
2026-05-07 08:39 41.25148 -8.67984 187 ft 12 kts 169°
2026-05-07 08:39 41.25040 -8.67955 195 ft 19 kts 167°
2026-05-07 08:39 41.24889 -8.67914 202 ft 24 kts 169°
2026-05-07 08:39 41.24731 -8.67819 210 ft 27 kts 165°
2026-05-07 08:40 41.24539 -8.67769 217 ft 30 kts 169°
2026-05-07 08:40 41.24331 -8.67713 228 ft 28 kts 163°
2026-05-07 08:40 41.24205 -8.67577 237 ft 11 kts 159°
2026-05-07 08:40 41.24166 -8.67607 236 ft 7 kts 252°
2026-05-07 08:41 41.24161 -8.67658 233 ft 2 kts 259°
2026-05-07 08:41 41.24160 -8.67669 233 ft 0 kts 260°